User: anonymous   Login
Location: Newark
(45.8378°N, 5.5389°E)
Time: 13:54:15
(UTC+00:00)
Language:

PicSat - Orbit

View from above orbital plane
View from above orbital plane
View from above satellite
View from above satellite

Ground track
Ground track

The orbit data is extracted from the following two-line orbital elements,

1 43131U 18004W   19346.71946923 +.00001527 +00000-0 +64753-4 0  9993
2 43131 097.4715 054.4489 0009094 002.0303 358.0970 15.24638335106482
Epoch (UTC): 12 December 2019 17:16:02
Eccentricity: 0.0009094
inclination: 97.4715°
perigee height: 485 km
apogee height: 498 km
right ascension of ascending node: 54.4489°
argument of perigee: 2.0303°
revolutions per day: 15.24638335
mean anomaly at epoch: 358.0970°
orbit number at epoch: 10648

The dashed part of the orbit path shows where the satellite is in the earth's shadow,  

DLR